Regional Weather Roundup
Issued by NWS

Home | Current Version | Previous Version | Graphics & Text | Print | Product List | Glossary On
Versions: 1 2 3 4 5 6 7 8 9 10 11 12 13 14 15 16 17 18 19 20 21 22 23 24 25 26 27 28 29 30 31 32 33 34 35 36 37 38 39 40 41 42 43 44 45 46 47 48 49 50
000
ASUS43 KBIS 251120
RWRND

NORTH DAKOTA REGIONAL WEATHER ROUNDUP
NATIONAL WEATHER SERVICE BISMARCK ND
600 AM CDT FRI JUL 25 2014

NOTE: "FAIR" INDICATES FEW OR NO CLOUDS BELOW 12,000 FEET WITH NO
SIGNIFICANT WEATHER AND/OR OBSTRUCTIONS TO VISIBILITY.


NDZ001>003-009>011-017-251200-
NORTHWEST NORTH DAKOTA

CITY           SKY/WX    TMP DP  RH WIND       PRES   REMARKS
WILLISTON      CLEAR     54  50  86 S7        29.87R
MINOT          MOCLDY    63  54  72 W10       29.78R
MINOT AFB      PTCLDY    61  58  92 NW10      29.77R
$$

NDZ018>021-031>035-040>046-251200-
SOUTHWEST NORTH DAKOTA

CITY           SKY/WX    TMP DP  RH WIND       PRES   REMARKS
BISMARCK       CLOUDY    67  64  90 W5        29.80R
DICKINSON      CLEAR     51  47  86 W6        29.88R
GARRISON         N/A     65  59  81 NW15      29.81R
HETTINGER ARPT CLEAR     53  46  77 W5        29.90R
$$

NDZ004>008-012>016-024-026-027-054-251200-
NORTHEAST NORTH DAKOTA

CITY           SKY/WX    TMP DP  RH WIND       PRES   REMARKS
GRAND FORKS    MOCLDY    65  62  90 SE8       29.69F
GRND FRKS AFB  MOCLDY    65  65  99 S13       29.68F
DEVILS LAKE    MOCLDY    64  57  77 S8        29.70R
$$

NDZ022-023-025-028>030-036>039-047>053-251200-
SOUTHEAST NORTH DAKOTA

CITY           SKY/WX    TMP DP  RH WIND       PRES   REMARKS
FARGO          MOCLDY    65  61  87 E6        29.74R
JAMESTOWN      PTCLDY    63  61  93 E3        29.74F
$$



USA.gov is the U.S. government's official web portal to all federal, state and local government web resources and services.